[[{"header":{"parameterUnit":"m.s-1","parameterCategory":2,"la1":30.2991,"la2":30.254,"lo1":-89.0895,"lo2":-89.0444,"dy":0.0017,"dx":0.0017,"nx":28,"ny":28,"refTime":"2025-09-15T09:00:00:Z","depth":"0","parameterNumber":2,"parameterNumberName":"U-component_of_CURRENTS"},"data":[0,0,0,0,0,0,0,0,0,0,0,0,0,0,0,0,0,0,0,0,0,0,0,0,0,0,0,0,0,0,0,0,0,0,0,0,0,0,0,0,0,0,0,0,0,0,0,0,0,0,0,0,0,0,0,0,0,0,0.2493,0.2494,0,0.2506,0.2505,0.2505,0.2502,0.2502,0.2503,0.2503,0.2504,0.2504,0.2504,0,0,0,0,0,0,0,0,0,0,0,0,0,0.249,0.2489,0.2493,0.2494,0.2494,0.2506,0.2505,0.2505,0.2502,0.2503,0.2503,0.2503,0.2504,0.2504,0.2504,0,0,0,0,0,0,0,0,0,0,0,0,0,0.2492,0.2489,0.2493,0.2497,0.2498,0.2506,0.2505,0.2505,0.2502,0.2503,0.2503,0.2503,0.2504,0.2504,0.2504,0.2501,0,0,0.2504,0.2504,0,0,0,0,0,0,0,0,0.2492,0.2492,0.2496,0.2497,0.2497,0.2506,0.2505,0.2504,0.2502,0.2497,0.2503,0.2503,0.2506,0.2506,0.2503,0.2501,0.2501,0.2504,0.2504,0.2504,0.2504,0,0,0,0,0,0,0,0.2492,0.2491,0.2494,0.2496,0.2497,0.2506,0.2506,0.2505,0.2497,0.2497,0.2498,0.2505,0.2506,0.2503,0.2503,0.2501,0.2504,0.2504,0.2504,0.2504,0.2505,0.2505,0,0,0,0,0,0,0.2496,0.2491,0.2494,0.2495,0.2499,0.2506,0.2506,0.25,0.2498,0.2498,0.2505,0.2505,0.2503,0.2503,0.2503,0.2497,0.2504,0.2504,0.2504,0.2505,0.2505,0.2505,0,0,0,0,0,0,0.2496,0.2496,0.2494,0.2497,0.2498,0.2506,0.25,0.25,0.2497,0.2504,0.2504,0.2502,0.2503,0.2503,0.2505,0.2497,0.2504,0.2504,0.2505,0.2505,0.2505,0.2486,0,0,0,0,0,0,0.2495,0.2495,0.2486,0.2497,0.2498,0.2494,0.25,0.2501,0.2503,0.2503,0.2502,0.2502,0.2503,0.2505,0.2505,0.2497,0.2503,0.2505,0.2505,0.2505,0.2487,0.2485,0.2485,0,0,0,0,0,0.2495,0.2479,0.2485,0.2486,0.2487,0.2494,0.2494,0.2499,0.2503,0.2497,0.2503,0.2502,0.2506,0.2505,0.2505,0.2497,0.2505,0.2505,0.2505,0.2487,0.2486,0.2485,0,0,0,0,0,0,0.2469,0.2479,0.2485,0.2472,0.2483,0.2495,0.249,0.2498,0.2497,0.2496,0.2503,0.2503,0.2505,0.2505,0.2504,0.2499,0.2505,0.2505,0.2492,0.249,0.2489,0.2517,0.2503,0,0,0,0,0,0.2462,0.2453,0.247,0.246,0.2465,0.2478,0.248,0.2486,0.2493,0.2492,0.2496,0.25,0.2505,0.2501,0.2507,0.2499,0.2547,0.2495,0.2494,0.2493,0.2516,0.2605,0.2615,0.2506,0.2506,0.2506,0,0,0.245,0.2455,0.2449,0.2455,0.2462,0.2466,0.2478,0.248,0.2482,0.2492,0.2491,0.25,0.2505,0.2502,0.2502,0.2499,0.2542,0.2493,0.2492,0.2517,0.2607,0.2618,0.2628,0.2506,0.2506,0.2506,0,0,0.2434,0.2427,0.2422,0.2429,0.2444,0.245,0.2452,0.2466,0.2469,0.2472,0.2484,0.2498,0.249,0.2503,0.2506,0.2505,0.2541,0.2492,0.2501,0.2585,0.2596,0.2606,0.2651,0.2665,0.2484,0.2484,0.2484,0,0.242,0.2419,0.2422,0.2426,0.243,0.2444,0.2447,0.2449,0.2462,0.2475,0.2469,0.2503,0.2497,0.2519,0.2512,0.2504,0.255,0.25,0.2587,0.2598,0.2608,0.2653,0.2669,0.2483,0.2483,0.2483,0.2483,0,0.2413,0.2409,0.2407,0.2414,0.2415,0.2417,0.2429,0.2433,0.2439,0.2457,0.2486,0.2496,0.2525,0.2511,0.2505,0.2565,0.2572,0.2582,0.2593,0.2619,0.2663,0.268,0.2481,0.2482,0.2482,0.2482,0,0,0.2385,0.24,0.2399,0.2403,0.241,0.2411,0.2413,0.2432,0.2457,0.2466,0.2511,0.2509,0.2538,0.2546,0.255,0.2606,0.2693,0.262,0.2625,0.267,0.2866,0.2684,0.2685,0.2727,0.2731,0.2734,0.2856,0,0.2382,0.2388,0.2394,0.2392,0.2394,0.2404,0.2412,0.2429,0.2453,0.2499,0.2527,0.2569,0.2543,0.2567,0.2619,0.2691,0.2743,0.2658,0.2831,0.2836,0.2676,0.2701,0.2516,0.2594,0.2873,0.2876,0.2878,0,0.2374,0.2379,0.2382,0.2393,0.2396,0.2396,0.2423,0.2435,0.2496,0.2525,0.2578,0.2615,0.2685,0.2672,0.2812,0.2763,0.2816,0.2863,0.287,0.2727,0.2686,0.262,0.2615,0.2522,0.2905,0.2903,0.2901,0,0.2357,0.2365,0.2369,0.237,0.2387,0.239,0.24,0.2444,0.2461,0.2559,0.2596,0.2694,0.2743,0.2848,0.2901,0.2887,0.3059,0.3056,0.2942,0.293,0.2819,0.2789,0.2752,0.3177,0.3177,0.3177,0.3176,0,0.235,0.2348,0.2361,0.2362,0.2366,0.2381,0.2401,0.2437,0.2495,0.2537,0.2613,0.2663,0.2797,0.2883,0.2949,0.2974,0.31,0.2956,0.2957,0.2797,0.2765,0.2715,0.2709,0.3181,0.318,0.3179,0.3179,0,0.2331,0.2345,0.2344,0.2359,0.2358,0.236,0.2371,0.2401,0.2459,0.2523,0.2557,0.2665,0.2762,0.2855,0.3022,0.2999,0.2962,0.3054,0.2822,0.279,0.2534,0.2534,0.2445,0.2383,0.2953,0.2949,0.2946,0,0.2326,0.2326,0.2329,0.2334,0.2338,0.2337,0.2347,0.2381,0.2414,0.251,0.2549,0.2641,0.2697,0.2819,0.2807,0.2867,0.2833,0.2718,0.2639,0.2489,0.2496,0.2416,0.2367,0.2498,0.2491,0.2486,0.2482,0,0.2317,0.232,0.233,0.2325,0.2328,0.2314,0.2329,0.2332,0.2395,0.2435,0.2504,0.2554,0.2603,0.2547,0.2558,0.2571,0.2522,0.2602,0.2549,0.2205,0.2025,0.1974,0.2433,0.2434,0.2439,0.2442,0.2445,0.2447,0.2318,0.2318,0.2331,0.2321,0.2318,0.2292,0.2251,0.2274,0.2277,0.2292,0.2398,0.2388,0.2344,0.2294,0.229,0.2068,0.2163,0.1994,0.2034,0.1986,0.1822,0.2123,0.2045,0.2047,0.2049,0.2051,0.2053,0,0.232,0.2326,0.2325,0.23,0.227,0.2268,0.2241,0.2182,0.2145,0.2164,0.2174,0.2047,0.1931,0.1871,0.1654,0.1549,0.1505,0.1498,0.1398,0.1406,0.1766,0.1636,0.1339,0.1339,0.1339,0.1339,0.1339,0.1339,0.2333,0.2329,0.2315,0.2254,0.2226,0.2119,0.2075,0.1993,0.1957,0.1819,0.1706,0.17,0.1618,0.1418,0.1223,0.1184,0.112,0.0985,0.1086,0.1376,0.1426,0.1475,0.1348,0.0996,0.0996,0.0612,0.0609,0.0607]},{"header":{"parameterUnit":"m.s-1","parameterCategory":2,"la1":30.2991,"la2":30.254,"lo1":-89.0895,"lo2":-89.0444,"dy":0.0017,"dx":0.0017,"nx":28,"ny":28,"refTime":"2025-09-15T09:00:00:Z","depth":"0","parameterNumber":3,"parameterNumberName":"V-component_of_CURRENTS"},"data":[0,0,0,0,0,0,0,0,0,0,0,0,0,0,0,0,0,0,0,0,0,0,0,0,0,0,0,0,0,0,0,0,0,0,0,0,0,0,0,0,0,0,0,0,0,0,0,0,0,0,0,0,0,0,0,0,0,0,-0.016,-0.016,0,-0.0182,-0.0182,-0.0182,-0.0191,-0.0191,-0.0192,-0.0192,-0.0154,-0.0152,-0.0151,0,0,0,0,0,0,0,0,0,0,0,0,0,-0.0067,-0.0069,-0.016,-0.016,-0.0161,-0.0182,-0.0182,-0.0182,-0.0191,-0.0191,-0.0192,-0.0192,-0.0154,-0.0153,-0.0151,0,0,0,0,0,0,0,0,0,0,0,0,0,-0.0096,-0.0069,-0.016,-0.0171,-0.0173,-0.0182,-0.0182,-0.0182,-0.0191,-0.0191,-0.0192,-0.0192,-0.0155,-0.0153,-0.0151,-0.0128,0,0,-0.0145,-0.0144,0,0,0,0,0,0,0,0,-0.0095,-0.0099,-0.0169,-0.017,-0.0172,-0.0188,-0.0136,-0.0162,-0.0191,-0.0179,-0.0192,-0.0192,-0.0162,-0.0159,-0.0157,-0.0126,-0.0125,-0.0144,-0.0143,-0.0142,-0.0142,0,0,0,0,0,0,0,-0.0093,-0.0098,-0.0164,-0.017,-0.0172,-0.0156,-0.0161,-0.014,-0.0163,-0.018,-0.0182,-0.0191,-0.0162,-0.0159,-0.0156,-0.0124,-0.0144,-0.0143,-0.0141,-0.0141,-0.0085,-0.0085,0,0,0,0,0,0,-0.0101,-0.0097,-0.0164,-0.0165,-0.0139,-0.0158,-0.0163,-0.0179,-0.0165,-0.0165,-0.0191,-0.0192,-0.0162,-0.0159,-0.0155,-0.0105,-0.0142,-0.014,-0.0139,-0.0085,-0.0085,-0.0084,0,0,0,0,0,0,-0.0099,-0.0107,-0.0163,-0.0134,-0.0141,-0.016,-0.0177,-0.0179,-0.0179,-0.0174,-0.0172,-0.019,-0.0163,-0.0158,-0.0137,-0.0104,-0.014,-0.0138,-0.0085,-0.0085,-0.0085,-0.0019,0,0,0,0,0,0,-0.0097,-0.0107,-0.0108,-0.0135,-0.0143,-0.016,-0.0177,-0.0179,-0.0186,-0.0188,-0.0172,-0.017,-0.0163,-0.014,-0.0135,-0.0102,-0.0136,-0.0086,-0.0085,-0.0085,-0.0021,-0.0016,-0.0012,0,0,0,0,0,-0.0093,-0.0091,-0.0108,-0.0116,-0.0149,-0.016,-0.0161,-0.0173,-0.0186,-0.0176,-0.0174,-0.017,-0.0134,-0.0138,-0.0132,-0.0098,-0.0086,-0.0085,-0.0085,-0.0023,-0.0017,-0.0012,0,0,0,0,0,0,-0.0044,-0.0093,-0.0112,-0.0124,-0.014,-0.0163,-0.0154,-0.0172,-0.0163,-0.0163,-0.0161,-0.0157,-0.0127,-0.013,-0.0135,-0.0085,-0.0111,-0.0109,-0.0066,-0.006,-0.0056,-0.0014,-0.0135,0,0,0,0,0,-0.0039,-0.0052,-0.0093,-0.0099,-0.0107,-0.0133,-0.0136,-0.015,-0.0155,-0.0153,-0.0148,-0.014,-0.0119,-0.0105,-0.0092,-0.006,-0.0039,-0.0039,-0.0034,-0.003,0.0005,0.006,0.0075,-0.0082,-0.0082,-0.0082,0,0,-0.0022,-0.005,-0.0056,-0.0089,-0.0101,-0.0095,-0.0134,-0.0139,-0.0121,-0.0148,-0.0113,-0.012,-0.0109,-0.0073,-0.006,-0.007,0.002,-0.0029,-0.0025,0.0008,0.0063,0.0079,0.0093,-0.0082,-0.0082,-0.0082,0,0,0.0011,-0.0019,-0.0018,-0.0031,-0.0057,-0.0065,-0.0069,-0.0093,-0.0088,-0.0073,-0.0081,-0.0065,-0.005,-0.0022,-0.0009,0.003,0.0041,0.0018,0.0087,0.0139,0.0154,0.0167,0.0196,0.0211,0.0023,0.0023,0.0024,0,0.0034,0.0024,-0.0014,-0.0013,-0.0008,-0.0049,-0.0031,-0.0028,-0.004,-0.0018,-0.0054,-0.0008,-0.0013,0.0062,0.0066,0.0049,0.0067,0.0068,0.015,0.0164,0.0176,0.0203,0.0219,0.0027,0.0026,0.0026,0.0026,0,0.0065,0.0061,0.0066,0.0055,0.0061,0.0068,0.0059,0.0073,0.0063,0.0064,0.0113,0.0104,0.0139,0.0126,0.011,0.0196,0.0175,0.015,0.0145,0.0197,0.022,0.0236,0.0031,0.003,0.0029,0.0028,0,0,0.0105,0.0089,0.0092,0.0107,0.0097,0.0111,0.0151,0.0185,0.0233,0.0215,0.0288,0.0293,0.028,0.0295,0.0275,0.0309,0.0387,0.0268,0.0269,0.0314,0.0495,0.0454,0.0466,0.0378,0.0382,0.0384,0.0469,0,0.0143,0.0167,0.0153,0.0203,0.0221,0.0215,0.0265,0.0294,0.0312,0.0372,0.0372,0.0423,0.0348,0.037,0.0396,0.0401,0.0435,0.0366,0.0424,0.0426,0.0399,0.0486,0.0443,0.0514,0.0485,0.0487,0.0489,0,0.0178,0.0193,0.024,0.0286,0.0297,0.0332,0.042,0.0455,0.0522,0.0538,0.0581,0.0577,0.0638,0.0555,0.0614,0.0573,0.0549,0.0534,0.0537,0.0498,0.0417,0.0459,0.0544,0.0486,0.0513,0.0511,0.051,0,0.0232,0.0261,0.031,0.0319,0.0362,0.0408,0.0446,0.0512,0.0571,0.0656,0.0711,0.0757,0.0802,0.0793,0.0743,0.0695,0.0798,0.0726,0.0669,0.0664,0.0643,0.063,0.07,0.0783,0.0782,0.0782,0.0782,0,0.0276,0.0317,0.0342,0.0367,0.0458,0.0468,0.0576,0.0619,0.0705,0.0802,0.0805,0.0893,0.0866,0.0901,0.083,0.0813,0.0871,0.0722,0.0706,0.0657,0.0646,0.0603,0.0568,0.0785,0.0785,0.0784,0.0783,0,0.0326,0.033,0.0395,0.0452,0.0478,0.0549,0.0645,0.0725,0.0792,0.0926,0.0964,0.1035,0.1082,0.1036,0.1038,0.0939,0.0877,0.0881,0.0813,0.0787,0.065,0.0619,0.0699,0.0675,0.0848,0.0848,0.0847,0,0.0356,0.0385,0.0459,0.0509,0.0539,0.063,0.0698,0.0768,0.0854,0.1011,0.1089,0.1177,0.1242,0.1225,0.1088,0.0998,0.0914,0.087,0.0768,0.0682,0.0636,0.0609,0.0581,0.0755,0.0754,0.0753,0.0753,0,0.0422,0.0441,0.0496,0.0581,0.0659,0.0743,0.0842,0.0921,0.1022,0.1135,0.1276,0.1344,0.1331,0.1233,0.1099,0.1007,0.0822,0.085,0.0802,0.0625,0.0566,0.052,0.0638,0.0746,0.0747,0.0748,0.0748,0.0748,0.0482,0.053,0.0585,0.0668,0.0751,0.0842,0.091,0.1023,0.1155,0.1306,0.1379,0.1464,0.1319,0.1136,0.1027,0.0768,0.0794,0.0657,0.0644,0.0637,0.0577,0.067,0.0725,0.0726,0.0726,0.0727,0.0727,0,0.0546,0.0584,0.0665,0.0753,0.0827,0.0858,0.0992,0.1055,0.1195,0.1341,0.1447,0.1388,0.123,0.1029,0.0706,0.0571,0.0516,0.0508,0.0466,0.0458,0.0581,0.0535,0.0502,0.0502,0.0502,0.0503,0.0503,0.0503,0.0588,0.0654,0.0677,0.0785,0.0843,0.0923,0.0987,0.1094,0.1198,0.1301,0.1319,0.1353,0.1201,0.0768,0.0488,0.0426,0.0352,0.0329,0.0328,0.0391,0.0403,0.0415,0.0365,0.0297,0.0296,0.0188,0.0187,0.0186]}],[{"header":{"parameterUnit":"m.s-1","parameterCategory":2,"la1":30.2991,"la2":30.254,"lo1":-89.0895,"lo2":-89.0444,"dy":0.0017,"dx":0.0017,"nx":28,"ny":28,"refTime":"2025-09-15T09:00:00:Z","depth":"2","parameterNumber":2,"parameterNumberName":"U-component_of_CURRENTS"},"data":[0,0,0,0,0,0,0,0,0,0,0,0,0,0,0,0,0,0,0,0,0,0,0,0,0,0,0,0,0,0,0,0,0,0,0,0,0,0,0,0,0,0,0,0,0,0,0,0,0,0,0,0,0,0,0,0,0,0,0.1921,0.1922,0,0.2005,0.2005,0.2006,0.2044,0.2045,0.2045,0.2046,0.2031,0.203,0.2029,0,0,0,0,0,0,0,0,0,0,0,0,0,0.1803,0.1804,0.1921,0.1922,0.1924,0.2005,0.2006,0.2006,0.2044,0.2045,0.2046,0.2046,0.2031,0.203,0.2029,0,0,0,0,0,0,0,0,0,0,0,0,0,0.1861,0.1805,0.192,0.1958,0.1962,0.2005,0.2006,0.2006,0.2044,0.2045,0.2046,0.2046,0.2031,0.203,0.2029,0.2006,0,0,0.2025,0.2024,0,0,0,0,0,0,0,0,0.1858,0.1865,0.195,0.1955,0.196,0.2021,0.1959,0.2003,0.2044,0.2006,0.2046,0.2047,0.2022,0.2021,0.2028,0.2005,0.2004,0.2025,0.2024,0.2023,0.2023,0,0,0,0,0,0,0,0.1854,0.1861,0.1947,0.1952,0.1958,0.1974,0.1982,0.1968,0.2002,0.201,0.2014,0.2034,0.2023,0.2029,0.2028,0.2004,0.2025,0.2024,0.2023,0.2022,0.2116,0.2119,0,0,0,0,0,0,0.1855,0.1858,0.1945,0.1951,0.1917,0.1976,0.1985,0.1995,0.2004,0.2009,0.2033,0.2035,0.2031,0.2029,0.2027,0.2106,0.2023,0.2022,0.2021,0.2112,0.2116,0.212,0,0,0,0,0,0,0.1852,0.1862,0.1942,0.1912,0.1924,0.1978,0.1989,0.1997,0.2036,0.2024,0.2026,0.2069,0.2031,0.2029,0.2055,0.2102,0.2022,0.202,0.2109,0.2114,0.2118,0.2196,0,0,0,0,0,0,0.1848,0.186,0.1867,0.1911,0.1926,0.1996,0.1989,0.1998,0.2048,0.2053,0.2055,0.2053,0.2032,0.2057,0.2054,0.2098,0.2019,0.2104,0.2111,0.2117,0.2189,0.2203,0.2214,0,0,0,0,0,0.1843,0.1855,0.1867,0.1878,0.1934,0.1998,0.2007,0.2043,0.205,0.2078,0.2085,0.2055,0.2095,0.2058,0.2053,0.2099,0.2101,0.2109,0.2116,0.2183,0.22,0.2214,0,0,0,0,0,0,0.182,0.1862,0.1876,0.1902,0.196,0.2008,0.2032,0.2061,0.2089,0.2088,0.2076,0.2075,0.2124,0.2105,0.2065,0.2152,0.2101,0.2108,0.2154,0.2169,0.2182,0.2177,0.2018,0,0,0,0,0,0.1816,0.1832,0.1888,0.1917,0.1939,0.199,0.202,0.205,0.2083,0.2098,0.2114,0.2127,0.2145,0.2152,0.2164,0.219,0.2182,0.2227,0.224,0.225,0.2248,0.2314,0.2331,0.2144,0.2144,0.2144,0,0,0.1824,0.1845,0.186,0.1914,0.1949,0.1992,0.2009,0.2065,0.211,0.2087,0.215,0.2169,0.2166,0.2212,0.2232,0.2201,0.2297,0.2259,0.2268,0.226,0.2323,0.2341,0.2357,0.2149,0.2148,0.2147,0,0,0.1837,0.1858,0.1872,0.1914,0.1975,0.2009,0.2035,0.2105,0.2144,0.2199,0.2211,0.2265,0.2281,0.231,0.2315,0.2404,0.2367,0.2417,0.2463,0.2528,0.2543,0.2557,0.2548,0.256,0.2417,0.2417,0.2417,0,0.184,0.187,0.1895,0.1921,0.1967,0.2021,0.2068,0.2108,0.2189,0.2231,0.223,0.2325,0.2329,0.2394,0.2432,0.2431,0.2435,0.2397,0.2542,0.2555,0.2568,0.2556,0.2568,0.2422,0.2421,0.2421,0.242,0,0.186,0.1897,0.1915,0.196,0.2009,0.2065,0.2127,0.2189,0.224,0.229,0.2389,0.2416,0.2474,0.25,0.2481,0.2586,0.2548,0.2553,0.2494,0.2591,0.2572,0.2583,0.2428,0.2427,0.2425,0.2424,0,0,0.1835,0.1913,0.1919,0.1962,0.204,0.2086,0.2159,0.2254,0.2311,0.2394,0.2482,0.2546,0.2582,0.2594,0.2612,0.2666,0.2751,0.2645,0.2646,0.2617,0.2846,0.2635,0.2626,0.2785,0.2788,0.279,0.2788,0,0.1852,0.191,0.1947,0.2033,0.2082,0.2153,0.222,0.2305,0.2376,0.247,0.2536,0.2614,0.2609,0.2649,0.271,0.2755,0.2788,0.2747,0.2772,0.2771,0.2559,0.2635,0.2443,0.2409,0.2798,0.28,0.2801,0,0.1854,0.1901,0.1981,0.209,0.2115,0.2172,0.2295,0.2359,0.2479,0.2533,0.2625,0.2675,0.2779,0.276,0.2868,0.2843,0.2846,0.2864,0.2865,0.2645,0.2582,0.2384,0.2414,0.2819,0.2818,0.2817,0.2815,0,0.1831,0.1926,0.1997,0.2034,0.2154,0.2212,0.2277,0.2389,0.2456,0.2581,0.2641,0.2758,0.2824,0.2885,0.2915,0.2908,0.3003,0.2999,0.28,0.2783,0.2608,0.2569,0.3061,0.3061,0.3061,0.3061,0.3061,0,0.1836,0.1895,0.1996,0.2038,0.2135,0.2208,0.2311,0.2388,0.2497,0.2575,0.2673,0.2748,0.2866,0.2929,0.2943,0.2888,0.3026,0.2805,0.2781,0.2624,0.2589,0.2941,0.2927,0.3061,0.3061,0.3061,0.3061,0,0.1818,0.1877,0.1972,0.2094,0.2134,0.2202,0.2327,0.2393,0.2487,0.2592,0.2638,0.2771,0.2838,0.2897,0.2983,0.2891,0.2884,0.2821,0.2581,0.2527,0.2606,0.2597,0.2601,0.2594,0.2588,0.2583,0.2578,0,0.182,0.1869,0.2001,0.2056,0.2121,0.2219,0.2288,0.2389,0.2447,0.2593,0.2638,0.2739,0.2733,0.2735,0.2672,0.2606,0.2753,0.2344,0.2287,0.2588,0.2566,0.2566,0.2565,0.2094,0.2086,0.208,0.2075,0,0.1848,0.1898,0.1974,0.2075,0.2156,0.2227,0.2318,0.2349,0.2455,0.2489,0.2532,0.2525,0.2517,0.2343,0.2239,0.2194,0.2337,0.2199,0.2643,0.2209,0.2102,0.2082,0.21,0.2017,0.2023,0.2027,0.203,0.2032,0.1878,0.193,0.2023,0.2108,0.2182,0.2215,0.2231,0.225,0.2258,0.2221,0.2308,0.2173,0.2146,0.1853,0.1783,0.1758,0.1912,0.1821,0.1847,0.1878,0.1788,0.1673,0.1488,0.1491,0.1493,0.1495,0.1497,0,0.192,0.1977,0.2051,0.2127,0.2155,0.2212,0.2241,0.2162,0.2063,0.1981,0.1881,0.161,0.1419,0.1473,0.1309,0.122,0.1281,0.1196,0.1296,0.135,0.14,0.1293,0.0858,0.0857,0.0855,0.0853,0,0,0.1953,0.2017,0.2034,0.2074,0.212,0.2113,0.2099,0.1911,0.1795,0.152,0.1373,0.1297,0.1357,0.1072,0.1019,0.0932,0.1149,0.089,0.1399,0.1572,0.1621,0.1747,0.1638,0,0,0,0,0]},{"header":{"parameterUnit":"m.s-1","parameterCategory":2,"la1":30.2991,"la2":30.254,"lo1":-89.0895,"lo2":-89.0444,"dy":0.0017,"dx":0.0017,"nx":28,"ny":28,"refTime":"2025-09-15T09:00:00:Z","depth":"2","parameterNumber":3,"parameterNumberName":"V-component_of_CURRENTS"},"data":[0,0,0,0,0,0,0,0,0,0,0,0,0,0,0,0,0,0,0,0,0,0,0,0,0,0,0,0,0,0,0,0,0,0,0,0,0,0,0,0,0,0,0,0,0,0,0,0,0,0,0,0,0,0,0,0,0,0,-0.0175,-0.0175,0,-0.0197,-0.0197,-0.0197,-0.0222,-0.0223,-0.0224,-0.0224,-0.0184,-0.0182,-0.0181,0,0,0,0,0,0,0,0,0,0,0,0,0,-0.0108,-0.0109,-0.0174,-0.0175,-0.0176,-0.0197,-0.0197,-0.0197,-0.0222,-0.0223,-0.0224,-0.0224,-0.0184,-0.0183,-0.0181,0,0,0,0,0,0,0,0,0,0,0,0,0,-0.0132,-0.011,-0.0174,-0.0193,-0.0195,-0.0197,-0.0197,-0.0197,-0.0222,-0.0223,-0.0224,-0.0225,-0.0185,-0.0183,-0.018,-0.0146,0,0,-0.0173,-0.0172,0,0,0,0,0,0,0,0,-0.0131,-0.0134,-0.019,-0.0192,-0.0194,-0.021,-0.0159,-0.0178,-0.0222,-0.0209,-0.0224,-0.0225,-0.0188,-0.0185,-0.0184,-0.0144,-0.0142,-0.0172,-0.0171,-0.017,-0.0169,0,0,0,0,0,0,0,-0.0129,-0.0133,-0.018,-0.019,-0.0193,-0.0185,-0.0189,-0.0162,-0.0189,-0.021,-0.0212,-0.0219,-0.0189,-0.0187,-0.0183,-0.0142,-0.0172,-0.017,-0.0169,-0.0168,-0.0128,-0.0128,0,0,0,0,0,0,-0.0133,-0.0132,-0.018,-0.0181,-0.0167,-0.0185,-0.019,-0.0202,-0.0191,-0.0192,-0.0218,-0.022,-0.0191,-0.0186,-0.0182,-0.0177,-0.017,-0.0168,-0.0166,-0.0128,-0.0128,-0.0129,0,0,0,0,0,0,-0.0132,-0.0138,-0.0179,-0.0159,-0.0164,-0.0186,-0.0198,-0.0202,-0.0218,-0.0199,-0.0198,-0.0234,-0.0191,-0.0186,-0.017,-0.0174,-0.0166,-0.0164,-0.0127,-0.0128,-0.0128,-0.0142,0,0,0,0,0,0,-0.013,-0.0137,-0.0146,-0.0159,-0.0165,-0.0188,-0.0198,-0.0202,-0.0221,-0.0224,-0.0211,-0.0208,-0.0191,-0.0174,-0.0168,-0.017,-0.0162,-0.0126,-0.0127,-0.0128,-0.0141,-0.0143,-0.0145,0,0,0,0,0,-0.0127,-0.0137,-0.0146,-0.0152,-0.0177,-0.0188,-0.019,-0.0206,-0.0221,-0.0225,-0.0219,-0.0209,-0.0176,-0.0172,-0.0165,-0.0167,-0.0126,-0.0127,-0.0128,-0.0141,-0.0143,-0.0145,0,0,0,0,0,0,-0.012,-0.0141,-0.0151,-0.0169,-0.0182,-0.0194,-0.02,-0.0214,-0.0214,-0.0218,-0.0204,-0.0199,-0.019,-0.0177,-0.0174,-0.016,-0.0153,-0.0153,-0.0165,-0.0167,-0.0169,-0.0132,-0.016,0,0,0,0,0,-0.0121,-0.0131,-0.015,-0.0166,-0.0171,-0.0188,-0.0196,-0.0209,-0.0212,-0.0215,-0.0212,-0.0202,-0.0185,-0.0176,-0.0161,-0.0144,-0.0108,-0.0145,-0.0147,-0.0149,-0.0115,-0.0039,-0.0029,-0.0132,-0.0132,-0.0132,0,0,-0.0126,-0.0137,-0.0146,-0.0164,-0.0174,-0.0173,-0.0195,-0.021,-0.0208,-0.0206,-0.0205,-0.0206,-0.0183,-0.017,-0.0165,-0.016,-0.0117,-0.015,-0.0151,-0.0116,-0.0038,-0.0028,-0.0018,-0.0132,-0.0132,-0.0132,0,0,-0.0128,-0.0148,-0.0151,-0.0156,-0.0171,-0.0175,-0.0184,-0.0204,-0.0211,-0.0209,-0.021,-0.0208,-0.0193,-0.0174,-0.016,-0.0159,-0.0129,-0.0174,-0.0147,-0.0074,-0.0064,-0.0054,-0.0059,-0.0049,-0.0174,-0.0174,-0.0174,0,-0.0134,-0.0138,-0.0154,-0.015,-0.0151,-0.0176,-0.0172,-0.0175,-0.0192,-0.018,-0.0211,-0.0182,-0.0184,-0.0137,-0.0152,-0.016,-0.0133,-0.0141,-0.0073,-0.0062,-0.0052,-0.0058,-0.0047,-0.0174,-0.0174,-0.0174,-0.0174,0,-0.0129,-0.0132,-0.0134,-0.0133,-0.0134,-0.0138,-0.0142,-0.0147,-0.0166,-0.0164,-0.0145,-0.0151,-0.0118,-0.0147,-0.0149,-0.0089,-0.0104,-0.0084,-0.006,-0.0041,-0.0051,-0.0039,-0.0175,-0.0175,-0.0175,-0.0175,0,0,-0.014,-0.0132,-0.0131,-0.0121,-0.0125,-0.0123,-0.011,-0.0094,-0.0064,-0.0095,-0.0047,-0.0065,-0.0064,-0.0047,-0.0061,-0.0026,0.002,-0.0027,-0.0023,-0.0021,0.0138,0.0049,0.0053,0.0065,0.0069,0.0071,0.0079,0,-0.0131,-0.0113,-0.0111,-0.0092,-0.0083,-0.0085,-0.0061,-0.0047,-0.0036,0.0006,0.0002,0.005,-0.0023,0.0003,0.0021,0.0059,0.0062,0.0014,0.0112,0.0114,0.0045,0.0069,0.0088,0.0093,0.0091,0.0093,0.0094,0,-0.0124,-0.0108,-0.0088,-0.0056,-0.0051,-0.0039,0.0011,0.0031,0.0089,0.011,0.0148,0.0168,0.0219,0.0158,0.0213,0.0193,0.0161,0.0154,0.0155,0.0103,0.0051,0.0086,0.0115,0.0115,0.0113,0.0111,0.011,0,-0.0115,-0.0091,-0.0071,-0.0065,-0.0033,-0.0016,0.0008,0.0059,0.0118,0.0206,0.0278,0.0318,0.0384,0.0378,0.0333,0.0308,0.0378,0.0353,0.0218,0.0208,0.0262,0.0251,0.0378,0.0378,0.0378,0.0378,0.0378,0,-0.0105,-0.009,-0.0065,-0.0054,-0.0011,0.0005,0.0076,0.0111,0.0214,0.0311,0.0347,0.0433,0.0456,0.0484,0.0405,0.0348,0.044,0.0238,0.0229,0.0244,0.0232,0.0297,0.0287,0.0379,0.0379,0.0379,0.0378,0,-0.0107,-0.0094,-0.0067,-0.0028,-0.0011,0.0021,0.0125,0.0188,0.0288,0.0427,0.0482,0.0584,0.0622,0.0577,0.058,0.046,0.0404,0.0338,0.0304,0.0289,0.0153,0.0142,0.0223,0.0221,0.0219,0.0217,0.0215,0,-0.0107,-0.0096,-0.0051,-0.0022,-0.0006,0.0057,0.0106,0.0208,0.0289,0.0498,0.0563,0.0675,0.0719,0.0661,0.0519,0.0383,0.0362,0.0266,0.0215,0.0167,0.015,0.0142,0.0135,0.0255,0.0253,0.0253,0.0252,0,-0.01,-0.0091,-0.0059,-0.0002,0.0043,0.0112,0.0192,0.028,0.0418,0.0567,0.0725,0.0798,0.0744,0.0645,0.0453,0.0347,0.0299,0.0238,0.0287,0.0267,0.0192,0.0175,0.0169,0.0244,0.0245,0.0246,0.0246,0.0246,-0.0091,-0.0067,-0.0023,0.0032,0.0086,0.0163,0.0242,0.036,0.0525,0.0732,0.0764,0.0856,0.0748,0.0506,0.0362,0.021,0.0203,0.0135,0.0141,0.0147,0.0127,0.005,0.0068,0.0068,0.0067,0.0067,0.0067,0,-0.0061,-0.0033,0.0015,0.0089,0.0152,0.0175,0.0301,0.0406,0.0603,0.0723,0.0848,0.0737,0.0633,0.0505,0.0267,0.0104,0.0128,0.0063,0.0142,0.0149,0.0156,0.0139,0.0082,0.0081,0.0081,0.0081,0,0,-0.0038,0.0014,0.004,0.014,0.0189,0.0288,0.0365,0.0522,0.0631,0.0774,0.0813,0.0804,0.0658,0.0476,0.031,0.02,0.0203,0.0173,0.0175,0.0295,0.0304,0.0208,0.019,0,0,0,0,0]}],[{"header":{"parameterUnit":"m.s-1","parameterCategory":2,"la1":30.2991,"la2":30.254,"lo1":-89.0895,"lo2":-89.0444,"dy":0.0017,"dx":0.0017,"nx":28,"ny":28,"refTime":"2025-09-15T09:00:00:Z","depth":"4","parameterNumber":2,"parameterNumberName":"U-component_of_CURRENTS"},"data":[0,0,0,0,0,0,0,0,0,0,0,0,0,0,0,0,0,0,0,0,0,0,0,0,0,0,0,0,0,0,0,0,0,0,0,0,0,0,0,0,0,0,0,0,0,0,0,0,0,0,0,0,0,0,0,0,0,0,0.039,0.039,0,0.0434,0.0435,0.0436,0.0514,0.0515,0.0516,0.0517,0.0595,0.0596,0.0597,0,0,0,0,0,0,0,0,0,0,0,0,0,0.0414,0.0413,0.039,0.039,0.039,0.0434,0.0435,0.0436,0.0513,0.0515,0.0516,0.0517,0.0595,0.0596,0.0597,0,0,0,0,0,0,0,0,0,0,0,0,0,0.0429,0.0413,0.039,0.043,0.0434,0.0434,0.0435,0.0437,0.0513,0.0515,0.0516,0.0518,0.0594,0.0596,0.0598,0.0577,0,0,0.0603,0.0603,0,0,0,0,0,0,0,0,0.0428,0.0429,0.0424,0.0427,0.0432,0.0466,0.0472,0.0484,0.0513,0.0488,0.0517,0.0518,0.0551,0.0556,0.0567,0.0581,0.0584,0.0603,0.0604,0.0605,0.0605,0,0,0,0,0,0,0,0.0427,0.0428,0.0412,0.0424,0.0429,0.0461,0.0465,0.0475,0.0514,0.049,0.0495,0.0492,0.0554,0.0565,0.057,0.0585,0.0603,0.0604,0.0605,0.0606,0.0668,0.0669,0,0,0,0,0,0,0.0408,0.0426,0.041,0.0413,0.0429,0.0458,0.0463,0.0457,0.0514,0.0522,0.0491,0.0495,0.0562,0.0568,0.0573,0.0632,0.0605,0.0606,0.0607,0.0668,0.0669,0.0669,0,0,0,0,0,0,0.0408,0.0406,0.0409,0.0418,0.0419,0.0455,0.0449,0.0457,0.0488,0.0513,0.0523,0.0515,0.0563,0.057,0.06,0.0632,0.0607,0.0609,0.0667,0.0668,0.0669,0.0698,0,0,0,0,0,0,0.0409,0.0406,0.0412,0.0416,0.0418,0.042,0.0447,0.0457,0.0481,0.0488,0.0536,0.0544,0.0565,0.0598,0.0602,0.0634,0.061,0.0666,0.0668,0.0669,0.0696,0.07,0.0703,0,0,0,0,0,0.041,0.0407,0.0412,0.0411,0.0419,0.042,0.0425,0.0459,0.048,0.0494,0.0528,0.0544,0.0609,0.0599,0.0604,0.0638,0.0666,0.0667,0.0669,0.0695,0.0699,0.0703,0,0,0,0,0,0,0.0425,0.0413,0.042,0.0416,0.0422,0.0432,0.0447,0.0463,0.05,0.0516,0.0544,0.0554,0.0597,0.0603,0.0591,0.0658,0.0643,0.0645,0.0661,0.0665,0.0669,0.0719,0.0611,0,0,0,0,0,0.0425,0.042,0.0416,0.0414,0.0416,0.0433,0.0443,0.0462,0.0483,0.0503,0.054,0.0575,0.0601,0.0622,0.0647,0.0673,0.0689,0.0699,0.0702,0.0705,0.0749,0.078,0.0791,0.0674,0.0674,0.0674,0,0,0.0429,0.0423,0.0421,0.0417,0.0427,0.0434,0.0446,0.046,0.0484,0.0503,0.0562,0.0588,0.061,0.0652,0.0671,0.0664,0.074,0.0707,0.071,0.0753,0.0783,0.0794,0.0805,0.0675,0.0675,0.0675,0,0,0.0423,0.0429,0.0421,0.0429,0.0437,0.0446,0.045,0.0474,0.0507,0.0546,0.0573,0.0625,0.0659,0.0698,0.0713,0.0746,0.0756,0.0745,0.0808,0.0835,0.0846,0.0856,0.0862,0.0872,0.0747,0.0747,0.0748,0,0.0432,0.042,0.0422,0.0424,0.0439,0.045,0.0461,0.0484,0.0524,0.0561,0.0574,0.0665,0.0692,0.0744,0.0778,0.076,0.0767,0.0788,0.0842,0.0852,0.0861,0.0866,0.0877,0.0749,0.0749,0.0749,0.0749,0,0.0419,0.0423,0.0421,0.0427,0.0448,0.0456,0.0482,0.0524,0.0566,0.0598,0.0676,0.0717,0.0779,0.079,0.0808,0.0885,0.0863,0.0839,0.0834,0.0875,0.0876,0.0887,0.0751,0.0751,0.075,0.075,0,0,0.0412,0.0408,0.0416,0.0427,0.0456,0.0469,0.0518,0.0565,0.0612,0.0671,0.0741,0.0818,0.0856,0.088,0.0896,0.0948,0.102,0.0942,0.0942,0.0955,0.1072,0.0958,0.0959,0.1001,0.1003,0.1006,0.1035,0,0.0407,0.0396,0.0415,0.0442,0.0443,0.0496,0.0542,0.06,0.0655,0.0726,0.0788,0.0861,0.0874,0.0926,0.0972,0.1022,0.1056,0.1014,0.1028,0.1029,0.0928,0.0971,0.1014,0.1043,0.1046,0.1048,0.1049,0,0.0398,0.0394,0.04,0.045,0.0463,0.0502,0.0599,0.0646,0.0738,0.0791,0.087,0.0911,0.1018,0.1011,0.1112,0.1083,0.1099,0.1122,0.1122,0.1028,0.0937,0.1001,0.1068,0.1067,0.1065,0.1064,0.1063,0,0.0378,0.04,0.0404,0.0419,0.0469,0.0528,0.0587,0.0681,0.0735,0.0855,0.0906,0.0996,0.1057,0.1114,0.1168,0.1156,0.1251,0.1216,0.1114,0.1105,0.1185,0.1175,0.1278,0.1278,0.1278,0.1278,0.1278,0,0.0352,0.0368,0.0404,0.041,0.0466,0.0533,0.0617,0.0693,0.0796,0.0856,0.0947,0.099,0.1095,0.1142,0.1185,0.1182,0.125,0.1155,0.1119,0.1189,0.118,0.119,0.118,0.1279,0.1279,0.1279,0.1279,0,0.0315,0.0325,0.0347,0.0415,0.0447,0.0506,0.0628,0.068,0.0796,0.0879,0.093,0.1014,0.1078,0.1136,0.1219,0.118,0.1211,0.1179,0.1252,0.1214,0.1041,0.1031,0.1087,0.1083,0.108,0.1078,0.1076,0,0.0277,0.0279,0.0345,0.0368,0.0406,0.0494,0.0547,0.0675,0.0727,0.0871,0.0894,0.0986,0.1029,0.1049,0.111,0.115,0.1129,0.1131,0.111,0.1069,0.1029,0.1024,0.1018,0.1071,0.1071,0.107,0.1069,0,0.0222,0.0259,0.0279,0.0323,0.0382,0.0424,0.0518,0.0553,0.0697,0.0795,0.086,0.0907,0.0938,0.0981,0.1007,0.1033,0.114,0.11,0.1106,0.1086,0.1051,0.1012,0.101,0.1059,0.106,0.1061,0.1062,0,0.0193,0.0208,0.0239,0.0289,0.0333,0.0351,0.041,0.0484,0.0558,0.0735,0.0739,0.0838,0.0918,0.0916,0.0948,0.0962,0.0949,0.0931,0.0946,0.0958,0.0901,0.0836,0.0771,0,0,0,0,0,0.0156,0.0176,0.0199,0.0233,0.0267,0.0293,0.0379,0.044,0.0575,0.0604,0.0685,0.0726,0.0777,0.0808,0.0796,0.0861,0.0933,0.0841,0.0915,0.1003,0.1014,0.0959,0,0,0,0,0,0,0.0135,0.0154,0.0176,0.0171,0.0184,0.021,0.0263,0.035,0.0378,0.0523,0.0548,0.0662,0.0707,0.0772,0.0773,0.0786,0.0814,0.0905,0.0903,0.0996,0.1007,0.1016,0.0963,0,0,0,0,0]},{"header":{"parameterUnit":"m.s-1","parameterCategory":2,"la1":30.2991,"la2":30.254,"lo1":-89.0895,"lo2":-89.0444,"dy":0.0017,"dx":0.0017,"nx":28,"ny":28,"refTime":"2025-09-15T09:00:00:Z","depth":"4","parameterNumber":3,"parameterNumberName":"V-component_of_CURRENTS"},"data":[0,0,0,0,0,0,0,0,0,0,0,0,0,0,0,0,0,0,0,0,0,0,0,0,0,0,0,0,0,0,0,0,0,0,0,0,0,0,0,0,0,0,0,0,0,0,0,0,0,0,0,0,0,0,0,0,0,0,0.0182,0.0182,0,0.0197,0.0197,0.0197,0.0208,0.0208,0.0208,0.0208,0.0209,0.0209,0.0209,0,0,0,0,0,0,0,0,0,0,0,0,0,0.0155,0.0155,0.0182,0.0182,0.0183,0.0197,0.0197,0.0197,0.0208,0.0208,0.0208,0.0208,0.0209,0.0209,0.0209,0,0,0,0,0,0,0,0,0,0,0,0,0,0.0168,0.0156,0.0182,0.0189,0.019,0.0197,0.0197,0.0197,0.0208,0.0208,0.0208,0.0208,0.0209,0.0209,0.0209,0.0207,0,0,0.0209,0.0209,0,0,0,0,0,0,0,0,0.0167,0.0169,0.0188,0.0189,0.019,0.0201,0.0188,0.02,0.0208,0.0201,0.0208,0.0208,0.0205,0.0205,0.0208,0.0207,0.0207,0.0209,0.0209,0.0209,0.0209,0,0,0,0,0,0,0,0.0166,0.0169,0.0188,0.0188,0.0189,0.0189,0.0191,0.019,0.0202,0.0202,0.0203,0.0204,0.0205,0.0208,0.0208,0.0207,0.0209,0.0209,0.0209,0.0209,0.0208,0.0208,0,0,0,0,0,0,0.0165,0.0168,0.0188,0.0189,0.0178,0.0189,0.0192,0.0197,0.0203,0.0204,0.0204,0.0204,0.0208,0.0208,0.0209,0.0218,0.0209,0.0209,0.0209,0.0208,0.0208,0.0208,0,0,0,0,0,0,0.0164,0.0166,0.0187,0.0178,0.0181,0.019,0.0196,0.0197,0.0206,0.0204,0.0205,0.0211,0.0209,0.0209,0.0215,0.0217,0.0209,0.0209,0.0208,0.0208,0.0208,0.0228,0,0,0,0,0,0,0.0163,0.0166,0.0172,0.0178,0.0181,0.0198,0.0196,0.0198,0.0206,0.0207,0.0211,0.0211,0.0209,0.0216,0.0215,0.0217,0.0209,0.0208,0.0208,0.0208,0.0228,0.0229,0.023,0,0,0,0,0,0.0162,0.0166,0.0172,0.0174,0.0188,0.0199,0.02,0.0207,0.0206,0.0214,0.0216,0.0211,0.0215,0.0216,0.0216,0.0217,0.0208,0.0208,0.0208,0.0227,0.0229,0.023,0,0,0,0,0,0,0.0154,0.0168,0.0174,0.0181,0.0194,0.02,0.0206,0.021,0.0218,0.0221,0.0216,0.0216,0.0221,0.0216,0.0217,0.0216,0.0209,0.0209,0.0223,0.0225,0.0226,0.0219,0.0209,0,0,0,0,0,0.0156,0.0165,0.0177,0.0184,0.019,0.02,0.0205,0.0214,0.0219,0.0223,0.0225,0.0223,0.022,0.0221,0.022,0.0222,0.0192,0.0221,0.0222,0.0223,0.0217,0.0167,0.0163,0.0209,0.0209,0.0209,0,0,0.0154,0.0163,0.0168,0.0184,0.0192,0.0205,0.0203,0.0218,0.0227,0.0222,0.0233,0.0231,0.0222,0.0225,0.0226,0.0222,0.0196,0.0223,0.0224,0.0217,0.0166,0.0162,0.0158,0.0209,0.0209,0.0209,0,0,0.0157,0.0164,0.0176,0.0188,0.0206,0.0213,0.0218,0.0233,0.0238,0.025,0.0244,0.024,0.0245,0.0233,0.0228,0.0233,0.0205,0.0237,0.0238,0.019,0.0185,0.0181,0.0142,0.0134,0.0237,0.0237,0.0237,0,0.0155,0.0176,0.0181,0.0197,0.0207,0.0216,0.0233,0.0238,0.0253,0.0248,0.0258,0.0241,0.0243,0.0224,0.0235,0.0234,0.0206,0.0235,0.0191,0.0186,0.0181,0.0142,0.0133,0.0238,0.0237,0.0237,0.0237,0,0.017,0.0189,0.0196,0.022,0.0229,0.0246,0.0255,0.026,0.0266,0.0265,0.0254,0.0251,0.0236,0.0239,0.0245,0.0213,0.0205,0.0198,0.0186,0.0177,0.0137,0.0127,0.0239,0.0239,0.0238,0.0238,0,0,0.0155,0.0201,0.0204,0.0222,0.0246,0.0254,0.0261,0.0265,0.0261,0.0263,0.0245,0.0245,0.0235,0.0228,0.0224,0.0193,0.0149,0.019,0.0187,0.0151,0.0046,0.0073,0.0064,0.0135,0.0133,0.0132,0.0034,0,0.0169,0.0211,0.0224,0.0254,0.0275,0.0278,0.0281,0.028,0.028,0.0264,0.0235,0.0231,0.0232,0.0235,0.0197,0.0165,0.0124,0.0177,0.0061,0.0058,0.0081,0.0054,0.0126,0.0027,0.0024,0.0023,0.0021,0,0.0179,0.0207,0.0251,0.0277,0.0283,0.03,0.03,0.0309,0.028,0.0275,0.0244,0.0227,0.0187,0.0193,0.0099,0.0134,0.0091,0.006,0.0055,0.0063,0.0066,0.0035,0.0003,0.0005,0.0006,0.0007,0.0008,0,0.0176,0.0218,0.0257,0.027,0.0301,0.031,0.0325,0.0314,0.0319,0.029,0.0283,0.0216,0.0195,0.0121,0.0068,0.008,-0.0042,-0.004,-0.0068,-0.0067,-0.007,-0.0065,-0.0125,-0.0124,-0.0124,-0.0124,-0.0124,0,0.0189,0.0214,0.0264,0.0288,0.0311,0.0328,0.0351,0.0345,0.034,0.0341,0.0298,0.0271,0.0178,0.0104,0.0046,-0.004,-0.007,-0.0079,-0.0096,-0.0057,-0.005,-0.0077,-0.007,-0.0128,-0.0127,-0.0126,-0.0126,0,0.0188,0.0226,0.0263,0.0306,0.0321,0.0341,0.0386,0.04,0.0393,0.039,0.0386,0.0302,0.0213,0.0116,-0.0007,-0.0056,-0.0142,-0.0168,-0.0119,-0.013,-0.0132,-0.0123,-0.0219,-0.0219,-0.0219,-0.0219,-0.0219,0,0.0198,0.0225,0.0279,0.0304,0.0333,0.0374,0.0406,0.0426,0.0442,0.041,0.04,0.0315,0.0255,0.008,-0.0015,-0.015,-0.0157,-0.0208,-0.0171,-0.0138,-0.0145,-0.0136,-0.0127,-0.0219,-0.0219,-0.0219,-0.0219,0,0.0207,0.0228,0.0258,0.0318,0.0364,0.0407,0.0454,0.0462,0.0479,0.0474,0.041,0.0326,0.0214,0.0082,-0.002,-0.0113,-0.0177,-0.0208,-0.0209,-0.0174,-0.0139,-0.0144,-0.0135,-0.0219,-0.0219,-0.0219,-0.0219,0,0.0206,0.0218,0.0269,0.0312,0.0378,0.0424,0.0445,0.0465,0.0477,0.0449,0.0423,0.0312,0.0244,0.01,0.0004,-0.0081,-0.0096,-0.0118,-0.0124,-0.0125,-0.0055,0.0005,-0.0056,0,0,0,0,0,0.0211,0.0224,0.0263,0.0314,0.0385,0.0425,0.0471,0.0487,0.0501,0.0466,0.0449,0.0353,0.0207,0.0124,0.0043,0.0005,-0.0112,-0.0092,-0.0141,-0.0219,-0.0219,-0.015,0,0,0,0,0,0,0.0208,0.0245,0.0253,0.0321,0.036,0.0436,0.0468,0.0473,0.0447,0.0442,0.0355,0.0339,0.0184,0.0252,0.0041,0.0015,-0.0025,-0.0157,-0.0158,-0.0219,-0.0219,-0.0219,-0.0148,0,0,0,0,0]}]]